Flag for Canada Weather past 2 weeks in Winnipeg, Manitoba, Canada

Now
61 °F

Partly sunny.


Feels Like: 61 °F
Forecast: N/A
Wind: 8 mph from Northeast

Location: Winnipeg Int. Airportman.

Current Time: Sep 16, 2014 at 6:55:29 PM

Latest Report: Sep 16, 2014 at 6:00 PM


Visibility: 15 mi

Pressure: 29.93 "Hg

Humidity: 63%

Dew point: 48 °F

Location of WinnipegLocation

Historic Weather in Winnipeg — Graph

°F

Winnipeg temperature yesterday

Maximum temperature yesterday: 66 °F (at 4:00 PM)
Minimum temperature yesterday: 39 °F (at 6:00 AM)
Average temperature yesterday: 52 °F

Past Weeks' High & Low Weather Summary

 TemperatureHumidityPressure
High79 °F (Sep 7, 5:00 PM)100% (Sep 2, 10:00 PM)30.47 "Hg (Sep 2, 10:00 PM)
Low34 °F (Sep 12, 7:00 AM)28% (Sep 15, 3:00 PM)29.55 "Hg (Sep 8, 11:00 AM)
Average54 °F72%30.01 "Hg
* Reported Sep 1 5:00 PM — Sep 16 5:00 PM, Winnipeg, Weather by CustomWeather, © 2014

Note: Actual official high and low records may vary slightly from our data, if they occured in-between our weather recording intervals... More about our weather records

Advertising

Winnipeg weather history for previous 24 hours

 ConditionsComfort  
Time TempWeatherWind HumidityBarometerVisibility
5:00 PM
Sep 16
61 °FPartly sunny.12 mph63%29.94 "Hg15 mi
4:00 PM64 °FBroken clouds.10 mph60%29.96 "Hg15 mi
3:00 PM64 °FBroken clouds.12 mph56%29.97 "Hg15 mi
2:00 PM64 °FPartly sunny.6 mph52%29.98 "Hg15 mi
1:00 PM64 °FPartly sunny.8 mph60%29.99 "Hg15 mi
12:00 PM63 °FPartly sunny.8 mph64%30.00 "Hg15 mi
11:00 AM61 °FBroken clouds.7 mph68%30.00 "Hg15 mi
10:00 AM59 °FScattered clouds.6 mph72%30.00 "Hg15 mi
9:00 AM54 °FPartly sunny.6 mph77%30.00 "Hg15 mi
8:00 AM52 °FPassing clouds.6 mph72%30.00 "Hg15 mi
7:00 AM50 °FPassing clouds.8 mph71%29.98 "Hg15 mi
6:00 AM54 °FPassing clouds.8 mph63%29.97 "Hg15 mi
5:00 AM54 °FPassing clouds.10 mph63%29.97 "Hg15 mi
4:00 AM54 °FPassing clouds.12 mph63%29.96 "Hg15 mi
3:00 AM54 °FPassing clouds.12 mph63%29.96 "Hg15 mi
2:00 AM55 °FPassing clouds.13 mph59%29.96 "Hg15 mi
1:00 AM57 °FPassing clouds.14 mph55%29.97 "Hg15 mi
12:00 AM55 °FPassing clouds.12 mph55%29.98 "Hg15 mi
11:00 PM
Sep 15
55 °FPassing clouds.13 mph51%30.00 "Hg15 mi
10:00 PM54 °FPassing clouds.10 mph54%30.01 "Hg15 mi
9:00 PM55 °FPassing clouds.7 mph51%30.03 "Hg15 mi
8:00 PM57 °FPartly sunny.7 mph51%30.03 "Hg15 mi
7:00 PM61 °FPartly sunny.7 mph45%30.05 "Hg15 mi
6:00 PM63 °FScattered clouds.8 mph37%30.06 "Hg15 mi
Weather by CustomWeather, © 2014

See weather overviewHow to use our weather pages